Regional Weather Roundup
Issued by NWS

Home | Current Version | Previous Version | Graphics & Text | Print | Product List | Glossary On
Versions: 1 2 3 4 5 6 7 8 9 10 11 12 13 14 15 16 17 18 19 20 21 22 23 24 25 26 27 28 29 30 31 32 33 34 35 36 37 38 39 40 41 42 43 44 45 46 47 48 49 50
000
ASUS45 KSLC 221610
RWRUT

UTAH REGIONAL WEATHER ROUNDUP
NATIONAL WEATHER SERVICE SALT LAKE CITY UT
900 AM MST MON DEC 22 2014

UTZ001>011-023>025-221700-

NORTHERN UTAH

CITY           SKY/WX    TMP DP  RH WIND       PRES   REMARKS
BRIGHAM CITY   CLOUDY    40  33  76 NW5       30.00F
HILL AFB       NOT AVBL
LOGAN          CLOUDY    40  32  73 VRB5      29.96F
OGDEN          LGT RAIN  39  35  86 W6        29.98F WCI  35
PROVO AIRPORT  LGT RAIN  34  30  86 CALM      30.01S FOG
SALT LAKE CITY LGT RAIN  38  36  92 E8        30.00R WCI  32
VERNAL         CLOUDY    35  34  96 CALM      29.87S
WENDOVER       CLOUDY    41  36  81 CALM      30.03R
HEBER CITY     MIX PCPN  32  32 100 CALM      29.93S
WEST JORDAN    CLOUDY    34  34 100 W6        30.00S WCI  29

$$

UTZ012>022-026-027-221700-

SOUTHERN/CENTRAL UTAH

CITY           SKY/WX    TMP DP  RH WIND       PRES   REMARKS
BLANDING       CLOUDY    35  32  90 E3        29.98F
BRYCE CANYON   CLOUDY    35  32  88 S5        30.05S WCI  31
CEDAR CITY     SUNNY     39  32  76 S7        30.05F WCI  34
DELTA          CLOUDY    40  40  99 NE6       30.01R
MILFORD        MOSUNNY   31  28  89 S7        30.02S WCI  24
MOAB/CYNLANDS  PTSUNNY   36  32  85 N6        29.89S WCI  31
PRICE          CLOUDY    38  32  79 NE8       29.88F WCI  32
ST GEORGE      CLOUDY    37  32  81 CALM      30.08F
KANAB          SUNNY     36  36 100 CALM      30.09F

$$

REGIONAL REPORTS     COLORADO/ARIZONA

CITY           SKY/WX    TMP DP  RH WIND       PRES   REMARKS
CRAIG, CO      CLOUDY    31  26  82 SW16      29.83F WCI  20
GRAND JUNCTION CLOUDY    33  33 100 NW3       29.86S
RIFLE          CLOUDY    34  32  92 CALM      29.86F
MONTROSE       CLOUDY    36  33  89 SE6       29.86F WCI  31
CORTEZ         PTSUNNY   39  33  79 CALM      29.92F
PAGE, AZ       SUNNY     42  33  70 CALM      29.97F
GRAND CANYON   SUNNY     42  34  73 NW6       30.08F
KINGMAN        SUNNY     43  37  79 S6        30.09S
FLAGSTAFF      SUNNY     45  31  58 VRB3      30.08R

$$

REGIONAL REPORTS    NEVADA/IDAHO/WYOMING

CITY           SKY/WX    TMP DP  RH WIND       PRES   REMARKS
LAS VEGAS, NV  SUNNY     50  39  66 S7        30.03F
ELY            CLOUDY    45  34  65 CALM      30.13R
ELKO           CLOUDY    45  40  82 W17       30.11R
POCATELLO, ID  CLOUDY    35  35 100 W5        29.98R WCI  31
BURLEY         MOCLDY    37  34  89 W17G26    30.00R WCI  27
EVANSTON, WY   CLOUDY    30  29  96 SW13      29.90F WCI  20
ROCK SPRINGS   CLOUDY    28  23  81 W22       29.83F WCI  14
KEMMERER       CLOUDY    28  27  93 W14       29.87F WCI  17

$$



USA.gov is the U.S. government's official web portal to all federal, state and local government web resources and services.